Location: Recife
(8.0585°S, 34.8848°W)
Time: 13:09:16
(UTC-03:00)

Vanguard 1 - Pass Details

Date: 20 April 2026
Orbit: 654 x 3817 km, 34.3° (Epoch: 11 May)

Event Time Altitude Azimuth Distance (km) Brightness Sun altitude
Rises 03:42:55 0° 329° (NNW) 6,805 14.1 -24.9°
Reaches altitude 10° 03:50:43 10° 348° (NNW) 5,052 13.6 -23.0°
Maximum altitude 03:57:51 16° 20° (NNE) 3,797 13.4 -21.3°
Drops below altitude 10° 04:03:13 10° 54° (NE) 3,625 13.9 -19.9°
Sets 04:07:12 0° 76° (ENE) 4,120 14.9 -19.0°
